Albuquerque, NM

1:26 AM MST on January 19, 2018 (GMT -0700)
Albuquerque International Sunport

Weather History for KABQ - February, 2012

Change the Weather History Date:

Monday, February 20, 2012

  Actual Average Record
Temperature  
Mean Temperature 37 °F 43 °F  
Max Temperature 45 °F 54 °F 74 °F (1981)
Min Temperature 29 °F 31 °F 9 °F (1955)
Degree Days  
Heating Degree Days 28 22  
Month to date heating degree days 502 491  
Since 1 July heating degree days 2993 3133  
Cooling Degree Days 0 0  
Month to date cooling degree days 0 0  
Year to date cooling degree days 0 0  
Moisture  
Dew Point 6 °F    
Average Humidity 43    
Maximum Humidity 75    
Minimum Humidity 10    
Precipitation  
Precipitation 0.00 in 0.02 in 0.19 in (2005)
Month to date precipitation 0.26 0.34  
Year to date precipitation 0.66 0.72  
Snow  
Snow 0.00 in - - ()
Month to date snowfall 1.9  
Since 1 July snowfall 6.7  
Snow Depth 0.00 in    
Sea Level Pressure  
Sea Level Pressure 30.03 in    
Wind  
Wind Speed 14 mph (NW)    
Max Wind Speed 31 mph    
Max Gust Speed 39 mph    
Visibility 10 miles    
Events      
T = Trace of Precipitation, MM = Missing Value Source: NWS Daily Summary

Daily Weather History Graph

Daily Weather History Graph

Search for Another Location

Airport or City:

Trip Planner

Search our weather history database for the weather conditions in past years. The results will help you decide how hot, cold, wet, or windy it might be!

Date:

Astronomy

Feb. 20, 2012 Rise Set
Actual Time 6:47 AM MST 5:53 PM MST
Civil Twilight 6:21 AM MST 6:19 PM MST
Nautical Twilight 5:52 AM MST 6:48 PM MST
Astronomical Twilight 5:22 AM MST 7:18 PM MST
Moon 5:44 AM MST (2/20) 5:01 PM MST (2/20)
Length of Visible Light 11h 57m
Length of Day
11h 06m
Waning Crescent, 1% of the Moon is Illuminated
Feb 20
Waning Crescent
Feb 21
New
Feb 29
First Quarter
Mar 8
Full
Mar 14
Last Quarter

Hourly Weather History & Observations

Time (MST) Temp. Windchill Dew Point Humidity Pressure Visibility Wind Dir Wind Speed Gust Speed Precip Events Conditions
12:56 AM 37.0 °F 32.4 °F 28.0 °F 70% 29.82 in 10.0 mi SSW 5.8 mph - N/A   Overcast
1:56 AM 36.0 °F 30.3 °F 28.0 °F 73% 29.82 in 10.0 mi SW 6.9 mph - N/A   Mostly Cloudy
2:56 AM 35.1 °F 32.2 °F 27.0 °F 72% 29.81 in 10.0 mi WSW 3.5 mph - N/A   Overcast
3:56 AM 35.1 °F 25.2 °F 21.0 °F 57% 29.83 in 10.0 mi WNW 16.1 mph - N/A   Overcast
4:56 AM 34.0 °F 22.1 °F 16.0 °F 48% 29.85 in 10.0 mi WNW 21.9 mph 31.1 mph N/A   Mostly Cloudy
5:56 AM 30.0 °F 17.5 °F 17.1 °F 59% 29.93 in 10.0 mi NNW 19.6 mph 26.5 mph N/A   Mostly Cloudy
6:56 AM 28.9 °F 16.9 °F 9.0 °F 43% 29.99 in 10.0 mi NW 17.3 mph - N/A   Scattered Clouds
7:56 AM 30.0 °F 16.6 °F 3.9 °F 33% 30.03 in 10.0 mi WNW 23.0 mph 28.8 mph N/A   Partly Cloudy
8:56 AM 33.1 °F 20.1 °F 3.0 °F 28% 30.06 in 10.0 mi WNW 25.3 mph 34.5 mph N/A   Partly Cloudy
9:56 AM 35.1 °F 22.7 °F 1.9 °F 25% 30.09 in 10.0 mi NW 25.3 mph 35.7 mph N/A   Partly Cloudy
10:56 AM 37.9 °F 27.9 °F 1.9 °F 22% 30.10 in 10.0 mi NW 19.6 mph 25.3 mph N/A   Partly Cloudy
11:56 AM 39.9 °F 31.1 °F 1.0 °F 20% 30.08 in 10.0 mi NW 17.3 mph - N/A   Clear
12:56 PM 43.0 °F 33.8 °F -5.1 °F 13% 30.06 in 10.0 mi NNW 23.0 mph 31.1 mph N/A   Clear
1:56 PM 43.0 °F 35.1 °F -6.0 °F 13% 30.06 in 10.0 mi NW 17.3 mph 25.3 mph N/A   Clear
2:56 PM 44.1 °F 36.8 °F -9.9 °F 10% 30.06 in 10.0 mi WNW 16.1 mph 23.0 mph N/A   Clear
3:56 PM 44.1 °F 37.7 °F -5.1 °F 13% 30.07 in 10.0 mi North 12.7 mph - N/A   Clear
4:56 PM 45.0 °F 39.3 °F -2.9 °F 14% 30.08 in 10.0 mi NNW 11.5 mph - N/A   Partly Cloudy
5:56 PM 41.0 °F 35.2 °F -2.0 °F 16% 30.11 in 10.0 mi North 9.2 mph - N/A   Partly Cloudy
6:56 PM 39.9 °F 32.9 °F 1.0 °F 20% 30.14 in 10.0 mi North 11.5 mph - N/A   Partly Cloudy
7:56 PM 37.9 °F 32.1 °F 1.0 °F 21% 30.16 in 10.0 mi North 8.1 mph - N/A   Clear
8:56 PM 36.0 °F 30.3 °F 1.9 °F 24% 30.16 in 10.0 mi North 6.9 mph - N/A   Clear
9:56 PM 33.1 °F 28.7 °F 3.9 °F 29% 30.18 in 10.0 mi NW 4.6 mph - N/A   Clear
10:56 PM 33.1 °F 28.7 °F 3.9 °F 29% 30.16 in 10.0 mi SW 4.6 mph - N/A   Clear
11:56 PM 28.9 °F 25.2 °F 6.1 °F 38% 30.17 in 10.0 mi South 3.5 mph - N/A   Clear